Weather History for KCRP - April, 2014

Change the Weather History Date:

Tuesday, April 22, 2014

  Actual Average Record
Temperature  
Mean Temperature 79 °F 74 °F  
Max Temperature 92 °F 83 °F 96 °F (2009)
Min Temperature 65 °F 65 °F 49 °F (1998)
Degree Days  
Heating Degree Days 0 0  
Month to date heating degree days 14 15  
Since 1 July heating degree days 1145 896  
Cooling Degree Days 14 9  
Month to date cooling degree days 157 160  
Year to date cooling degree days 318 351  
Growing Degree Days 28 (Base 50)    
Moisture  
Dew Point 66 °F    
Average Humidity 70    
Maximum Humidity 93    
Minimum Humidity 46    
Precipitation  
Precipitation 0.00 in 0.06 in 1.93 in (1952)
Month to date precipitation 0.45 1.28  
Year to date precipitation 3.01 6.64  
Snow  
Snow 0.00 in - - ()
Month to date snowfall 0.0  
Since 1 July snowfall T  
Snow Depth 0.00 in    
Sea Level Pressure  
Sea Level Pressure 29.95 in    
Wind  
Wind Speed 7 mph (SE)    
Max Wind Speed 18 mph    
Max Gust Speed 22 mph    
Visibility 10 miles    
Events      
T = Trace of Precipitation, MM = Missing Value Source: NWS Daily Summary

Daily Weather History Graph

Daily Weather History Graph

Search for Another Location

Airport or City:

Trip Planner

Search our weather history database for the weather conditions in past years. The results will help you decide how hot, cold, wet, or windy it might be!

Date:

Astronomy

Apr. 22, 2014 Rise Set
Actual Time 6:58 AM CDT 7:59 PM CDT
Civil Twilight 6:34 AM CDT 8:23 PM CDT
Nautical Twilight 6:05 AM CDT 8:52 PM CDT
Astronomical Twilight 5:36 AM CDT 9:21 PM CDT
Moon 2:12 AM CDT (4/22) 1:36 PM CDT (4/22)
Length of Visible Light 13h 49m
Length of Day
13h 00m
Last Quarter, 46% of the Moon is Illuminated
Apr 22
Last Quarter
Apr 29
New
May 6
First Quarter
May 14
Full
May 21
Last Quarter

Hourly Weather History & Observations

Time (CDT) Temp. Heat Index Dew Point Humidity Pressure Visibility Wind Dir Wind Speed Gust Speed Precip Events Conditions
12:51 AM 69.8 °F - 66.2 °F 88% 30.02 in 10.0 mi South 6.9 mph - N/A   Mostly Cloudy
1:51 AM 70.0 °F - 66.0 °F 87% 29.98 in 10.0 mi SSE 10.4 mph - N/A   Mostly Cloudy
2:51 AM 69.8 °F - 66.2 °F 88% 29.96 in 10.0 mi SE 5.8 mph - N/A   Mostly Cloudy
3:51 AM 70.0 °F - 66.9 °F 90% 29.94 in 10.0 mi South 8.1 mph - N/A   Overcast
4:51 AM 70.0 °F - 66.9 °F 90% 29.99 in 10.0 mi Calm Calm - N/A   Mostly Cloudy
5:51 AM 68.0 °F - 64.9 °F 90% 29.96 in 10.0 mi Calm Calm - N/A   Partly Cloudy
6:51 AM 64.9 °F - 63.0 °F 93% 29.97 in 10.0 mi Calm Calm - N/A   Partly Cloudy
7:51 AM 70.0 °F - 66.0 °F 87% 29.99 in 10.0 mi NE 3.5 mph - N/A   Partly Cloudy
8:51 AM 73.9 °F - 66.9 °F 79% 29.99 in 10.0 mi Calm Calm - N/A   Partly Cloudy
9:51 AM 77.0 °F - 66.9 °F 71% 30.00 in 10.0 mi Calm Calm - N/A   Partly Cloudy
10:51 AM 82.9 °F 85.4 °F 66.9 °F 58% 30.01 in 10.0 mi Variable 3.5 mph - N/A   Scattered Clouds
11:51 AM 84.9 °F 87.6 °F 66.9 °F 55% 30.00 in 10.0 mi Variable 4.6 mph - N/A   Mostly Cloudy
12:51 PM 87.1 °F 89.9 °F 66.9 °F 51% 29.98 in 10.0 mi Variable 4.6 mph - N/A   Scattered Clouds
1:51 PM 87.1 °F 88.9 °F 64.9 °F 48% 29.95 in 10.0 mi Variable 5.8 mph - N/A   Scattered Clouds
2:51 PM 90.0 °F 92.4 °F 66.0 °F 45% 29.93 in 10.0 mi East 9.2 mph - N/A   Scattered Clouds
3:51 PM 89.1 °F 91.3 °F 66.0 °F 46% 29.90 in 10.0 mi SE 13.8 mph 19.6 mph N/A   Scattered Clouds
4:51 PM 87.8 °F 89.4 °F 64.4 °F 46% 29.88 in 10.0 mi ESE 15.0 mph - N/A   Partly Cloudy
5:51 PM 86.0 °F 87.6 °F 64.9 °F 49% 29.87 in 10.0 mi SE 16.1 mph - N/A   Partly Cloudy
6:51 PM 82.0 °F 83.8 °F 64.9 °F 56% 29.86 in 10.0 mi SE 15.0 mph - N/A   Partly Cloudy
7:51 PM 79.0 °F - 64.0 °F 60% 29.88 in 10.0 mi SE 13.8 mph - N/A   Partly Cloudy
8:51 PM 75.0 °F - 66.9 °F 76% 29.91 in 10.0 mi SSE 11.5 mph - N/A   Scattered Clouds
9:51 PM 73.9 °F - 66.9 °F 79% 29.93 in 10.0 mi SSE 9.2 mph - N/A   Mostly Cloudy
10:51 PM 73.0 °F - 66.9 °F 81% 29.94 in 10.0 mi SSE 9.2 mph - N/A   Partly Cloudy
11:51 PM 71.1 °F - 66.0 °F 84% 29.94 in 10.0 mi South 6.9 mph - N/A   Partly Cloudy